www.pogodaiklimat.ru

Погода и климат >> Архив погоды >> Россия >> Краснодарский край >> Белая Глина


ПОГОДА в Белой Глине

  • Прогноз погоды в Белой Глине
  • Монитор погоды в Белой Глине
  • Климат города

АРХИВ ПОГОДЫ в Белой Глине

Время (UTC), дата Ветер
(напр.,м/с)
 
Видим.   Явления Облачность Т
(С)
Тd
(С)
f
(%)
Тe
(С)
Тes
(С)
Комфортность P
(гПа)
Po
(гПа)
Тmin
(С)
Tmax
(С)
R
(мм)
R24
(мм)
S
(см)
18 12.11 СВ 4-12
{12}
4000 м слабый ливневой снег 10/10 300 м
[Cb cap]
-4.2 -6.1 87 -11 -11 1034.1 1025.1
21 12.11 СВ 4-10
{12}
4000 м слабый ливневой снег 10/10 300 м
[Cb cap]
-4.2 -6.1 87 -11 -11 1033.3 1024.4
00 13.11 СВ 3
{10}
4000 м слабый ливневой снег 10/10 300 м
[Cb cap]
-4.2 -5.4 91 -10 -10 1032.9 1024.0
03 13.11 СВ 4
{10}
4000 м слабый ливневой снег 10/10 300 м
[Cb cap]
-3.8 -5.3 89 -10 -10 1032.2 1023.3 -4.3 9 7
06 13.11 СВ 4
{12}
4000 м слабый ливневой снег 10/10 300 м
[Cb cap]
-3.6 -4.7 92 -10 -10 1031.8 1022.9
09 13.11 СВ 4
{12}
4000 м слабый ливневой снег 10/10 300 м
[Cb cap]
-2.6 -3.6 93 -9 -9 1031.6 1022.7
12 13.11 СВ 3
{10}
10 км {ливн. осадки} 10/0
[Ac As]
+0.7 -1.7 84 -4 -3 1031.5 1022.7
15 13.11 СВ 4
{10}
4000 м слабый ливневой снег 10/10 300 м
[Cb cap]
-0.4 -1.3 94 -6 -6 1031.6 1022.8 +0.7 13
18 13.11 В 6
{12}
4000 м слабый ливневой дождь [диам. гололёда 3 мм] 10/10 300 м
[Cb cap]
-0.1 -1.5 90 -7 -7 1032.4 1023.6
21 13.11 СВ 7-10
{13}
10 км {ливн. осадки} [диам. гололёда 3 мм] 10/10 300 м
[Cb cap]
-0.1 -1.8 88 -7 -7 1031.6 1022.8
00 14.11 СВ 5
{12}
10 км {ливн. осадки} [диам. гололёда 3 мм] 10/4 600 м
[Cb cap Ac lent]
-1.4 -3.4 86 -8 -8 1031.0 1022.2
03 14.11 СВ 4
{10}
10 км [диам. гололёда 3 мм] 10/10 600 м
[Sc]
-2.6 -4.5 87 -9 -9 1030.9 1022.0 -2.7 2 15
06 14.11 СВ 3 10 км [диам. гололёда 2 мм] 10/10 600 м
[Sc]
-2.6 -4.5 87 -8 -8 1030.4 1021.5 -3.0
09 14.11 СВ 3 10 км [диам. гололёда 1 мм] 10/10 600 м
[Sc]
-1.1 -3.4 84 -6 -6 1029.3 1020.5
12 14.11 СВ 2 10 км 10/10 600 м
[Sc]
+0.1 -2.5 83 -3 -3 1029.2 1020.4
15 14.11 СВ 4 10 км 10/10 600 м
[Sc]
+0.2 -2.5 82 -5 -5 1028.7 1019.9 +0.5
18 14.11 СВ 2 10 км 10/10 600 м
[Sc]
+0.2 -2.5 82 -3 -3 1027.9 1019.1
21 14.11 СВ 2 10 км 10/10 600 м
[Sc]
+0.3 -2.4 82 -3 -3 1026.5 1017.7
00 15.11 СВ 2 10 км 10/10 600 м
[Sc]
-1.8 -4.2 84 -6 -6 1025.1 1016.3
03 15.11 СВ 2 10 км 10/10 600 м
[Sc]
-2.0 -4.5 83 -6 -6 1026.0 1017.2 -2.3 7
06 15.11 В 3 10 км 10/10 600 м
[Sc]
-2.7 -5.3 82 -8 -8 1024.6 1015.7 -2.8
09 15.11 СВ 4
{12}
10 км 10/10 600 м
[Sc]
-1.8 -4.6 81 -8 -8 1024.3 1015.5
12 15.11 СВ 4
{10}
10 км 10/10 600 м
[Sc]
-1.6 -3.3 88 -7 -7 1024.2 1015.4
15 15.11 СВ 4 4000 м слабый ливневой снег 10/10 300 м
[Cb cap]
-1.0 -2.0 93 -7 -7 1025.9 1017.1 -1.1 3
18 15.11 СВ 3 4000 м слабый ливневой снег 10/10 300 м
[Cb cap]
-0.4 -1.3 94 -5 -5 1025.2 1016.4
21 15.11 СВ 4
{10}
10 км {ливн. осадки} 10/10 300 м
[Cb cap]
-0.3 -2.1 88 -6 -6 1025.9 1017.1
00 16.11 СВ 5
{10}
10 км {ливн. осадки} 10/10 600 м
[Sc]
-0.6 -2.4 88 -7 -7 1026.6 1017.8
03 16.11 В 5
{11}
10 км 10/10 600 м
[Sc]
-1.1 -3.0 87 -7 -7 1026.9 1018.1 -1.0 5 14
06 16.11 СВ 4 10 км 10/10 600 м
[Sc]
-1.6 -3.6 86 -7 -7 1027.6 1018.8 -1.7
09 16.11 СВ 4
{12}
10 км 10/10 600 м
[Cb cap]
-1.2 -3.5 84 -7 -7 1027.8 1019.0
12 16.11 СВ 4
{10}
4000 м слабый ливневой снег 10/10 300 м
[Cb cap]
-1.4 -2.8 90 -7 -7 1028.3 1019.5
15 16.11 СВ 6-10
{12}
4000 м слабый ливневой снег 10/10 300 м
[Cb cap]
-1.6 -3.0 90 -9 -9 1028.6 1019.8 -1.1 1
18 16.11 СВ 5
{11}
4000 м дымка {ливн. осадки} 10/10 600 м
[Cb cap]
-1.6 -2.7 92 -8 -8 1028.7 1019.9
21 16.11 СВ 4
{10}
10 км 10/10 600 м
[Cb cap]
-0.8 -3.3 83 -6 -6 1028.7 1019.9
00 17.11 СВ 4 10 км 10/10 600 м
[Sc]
-0.5 -5.3 70 -6 -6 1028.3 1019.5
03 17.11 СВ 3 10 км 10/10 600 м
[Sc]
-0.7 -4.9 73 -5 -5 1028.9 1020.1 -1.7 0.3 15
06 17.11 СВ 5
{10}
10 км 10/10 600 м
[Cb cap]
-0.7 -4.2 77 -7 -7 1029.6 1020.8
09 17.11 СВ 4
{10}
10 км {ливн. осадки} [диам. гололёда 1 мм] 10/10 600 м
[Cb cap]
-0.4 -2.8 84 -6 -6 1030.3 1021.5
12 17.11 СВ 3 4000 м слабый ливневой снег 10/10 300 м
[Cb cap]
-0.8 -2.4 89 -6 -6 1029.8 1021.0
15 17.11 СВ 2 4000 м слабый ливневой снег 10/10 300 м
[Cb cap]
-1.8 -3.2 90 -6 -6 1030.3 1021.5 -0.1 5
18 17.11 СВ 1 10 км {ливн. осадки} 10/10 600 м
[Cb cap]
-1.6 -3.3 88 -4 -4 1030.1 1021.3
21 17.11 СВ 2 10 км 10/10 600 м
[Cb cap]
-1.2 -3.5 84 -5 -5 1029.3 1020.5
00 18.11 С 1 10 км 10/10 600 м
[Sc]
-1.2 -3.5 84 -3 -3 1028.4 1019.6
03 18.11 С 1 10 км 9/4 600 м
[Sc Ac trans]
-2.2 -5.0 81 -4 -4 1027.6 1018.8 -2.3 0.3 16
06 18.11 С 1 10 км 10/0
[Ac lent]
-2.0 -4.5 83 -4 -4 1028.9 1020.1
09 18.11 В 2 10 км 10/0
[Ac lent]
-0.8 -3.0 85 -5 -4 1028.8 1020.0
12 18.11 В 2 10 км 10/0
[Ac lent]
-0.8 -2.4 89 -5 -4 1028.2 1019.4
15 18.11 В 1 10 км 10/0
[Ac und]
-0.2 -2.6 84 -2 -2 1026.5 1017.7 +0.3
18 18.11 СВ 1 10 км 10/0
[Ac und]
-0.6 -3.0 84 -3 -3 1026.8 1018.0
21 18.11 В 1 10 км 10/0
[Ac und]
0.0 -2.3 84 -2 -2 1027.0 1018.2
00 19.11 штиль 0 10 км 10/0
[Ac und]
-0.2 -2.6 84 -1 -1 1026.4 1017.6
03 19.11 СВ 1 4000 м дымка 10/10 600 м
[Sc]
-0.2 -1.7 90 -2 -2 1028.3 1019.5 -0.7 10
06 19.11 В 1 4000 м дымка 10/10 600 м
[Sc]
-0.1 -1.5 90 -2 -2 1027.4 1018.6
09 19.11 СВ 2 10 км 8/4 600 м
[Sc Ac cast]
+1.8 -0.4 85 -2 -0 1027.3 1018.6
12 19.11 СВ 1 10 км 3/0
[Cc]
+1.9 -0.9 82 0 +2 1026.4 1017.6
15 19.11 СВ 2 10 км ясно +0.1 -2.3 84 -3 -3 1026.6 1017.8 +1.9

 

Местоположение метеостанции Белая Глина (Краснодарский край, Россия): широта 46.08 долгота 40.88 высота над уровнем моря 69 м.

В архиве по умолчанию представлена погода в Белой Глине за последнюю неделю. Архивные данные за месяц целиком и за предыдущие месяцы, начиная с января 2011 года, Вы можете получить, выбрав интересующий диапазон дат из раскрывающегося списка и нажав кнопку "Ввод!".


*Определитесь, кто Вы:
робот инопланетянин человек

Внимание! Время в таблицах - всемирное. Для получения местного времени необходимо прибавить поправку, которая в Белой Глине равна 3 ч.

Смотрите также архив погоды в соседних городах и на ближайших метеорологических станциях:

Погода в Красногвардейском (Ставропольский край, Россия) (54 км)
Погода в Гиганте (Ростовская область, Россия) (61 км)
Погода в Тихорецке (Краснодарский край, Россия) (67 км)
Погода в Новоалександровске (Ставропольский край, Россия) (69 км)
Погода в Кропоткине (Краснодарский край, Россия) (76 км)
Погода в Сосыке (Краснодарский край, Россия) (81 км)
Погода в Городовиковске (Калмыкия, Россия) (84 км)
Погода в Зерноград (Ростовская область, Россия) (96 км)
Погода в Изобильном (Ставропольский край, Россия) (101 км)
Погода в Кущевской (Краснодарский край, Россия) (109 км)

Пояснения к столбцам:

Ветер - указаны скорость ветра в м/с - средняя за 10 мин, порывы в срок и между сроками (в фигурных скобках) и направление, откуда дует ветер: С - северный, СВ - северо-восточный, В - восточный, ЮВ - юго-восточный, Ю - южный, ЮЗ - юго-западный, З - западный, СЗ - северо-западный.
Видимость - горизонтальная дальность видимости в метрах или километрах. При видимости от 1 до 10 км при отсутствии осадков обычно наблюдается дымка, при ухудшении видимости до 1 км и менее - туман. В сухую погоду видимость может ухудшаться дымом, пылью или мглою.
Явления - указаны атмосферные явления, наблюдавшиеся в срок или в последний час перед сроком; фигурными скобками обозначены явления, наблюдавшиеся между сроками (за 1-3 часа до срока); квадратными скобками обозначены град или гололедные отложения с указанием их диаметра в мм.
Облачность - указаны через наклонную черту общая и нижняя облачность в баллах и высота нижней границы облаков в метрах; квадратными скобками обозначены формы облаков: Ci - перистые, Cs - перисто-слоистые, Cc - перисто-кучевые, Ac - высококучевые, As - высокослоистые, Sc - слоисто-кучевые, Ns - слоисто-дождевые, Cu - кучевые, Cb - кучево-дождевые. Подробнее классификацию облаков см. в Атласе облаков (PDF).
T - Температура воздуха - температура, измеренная на высоте 2 м над землей.
Td - Температура точки росы - температура, при понижении до которой содержащийся в воздухе водяной пар достигнет насыщения.
f - Относительная влажность воздуха - влажноcть воздуха, измеренная на высоте 2 м над землей.
Te - Эффективная температура - температура, которую ощущает одетый по сезону человек в тени. Характеристика душности погоды. При расчете учитывается влияние влажности воздуха и скорости ветра на теплоощущения человека.
Tes - Эффективная температура на солнце - температура, которую ощущает человек, с поправкой на солнечный нагрев. Характеристика знойности погоды. Зависит от высоты солнца над горизонтом, облачности и скорости ветра. Ночью, в пасмурную погоду, а также при ветре 12 м/с и более поправка равна нулю.
P - Атмосферное давление - приведенное к уровню моря атмосферное давление.
Po - Атмосферное давление - измеренное на уровне метеостанции атмосферное давление.
Tmin - Минимальная температура - минимум температуры воздуха на высоте 2 м над землей.
Tmax - Максимальная температура - максимум температуры воздуха на высоте 2 м над землей.
R - Количество осадков - Количество выпавших осадков за период времени, мм. При наведении курсора мыши на число - период времени, за который выпало указанное количество осадков.
R24 - Количество осадков - Количество выпавших осадков за 24 часа, мм.
S - Снежный покров - Высота снежного покрова, см. При наведении курсора мыши на число - состояние снежного покрова и степень покрытия местности в баллах.